Wind_Speed
17 17 16 15 15 14 14 14 14 14 15 16 16 16 16 15 14 13 14 15 17 19 22 24 25 27 28 29 31 32 34 35 37 39 40 41 41 41 40 39 37 36
17 16 16 15 15 15 15 14 14 15 16 16 15 15 14 13 13 14 14 16 18 21 23 24 26 28 29 31 32 34 36 37 39 40 41 41 42 41 41 40 38 37
16 16 15 15 15 15 15 14 15 16 16 15 14 14 13 13 14 14 16 18 20 22 24 25 27 29 31 33 34 36 37 39 40 41 41 42 42 42 41 40 39 38
17 16 15 15 15 14 14 15 16 16 16 15 14 14 14 14 14 16 18 20 21 23 25 27 28 30 32 34 36 37 39 40 41 41 42 42 42 42 41 41 40 39
17 16 16 16 15 14 15 16 17 16 15 15 15 14 14 15 16 18 20 21 23 24 26 28 30 32 34 35 37 39 40 41 42 42 43 43 42 42 41 40 40 39
18 17 17 16 15 16 16 16 16 16 16 16 16 16 16 17 19 20 22 23 25 26 28 29 31 33 35 36 38 40 41 42 42 43 43 43 42 42 41 40 39 39
19 18 17 17 17 16 16 16 17 18 18 18 18 18 19 20 21 22 24 25 27 28 30 31 32 34 36 37 39 41 41 42 42 43 43 42 42 41 40 39 39 38
19 18 17 17 17 17 17 17 18 20 20 21 20 20 21 21 23 24 26 27 29 30 32 33 33 35 36 38 40 41 41 42 43 43 42 42 42 41 40 39 39 38
20 19 19 18 18 18 18 20 21 22 22 22 22 21 22 23 25 26 28 30 31 32 33 34 34 35 37 39 40 41 41 42 43 42 42 41 41 40 40 39 38 38
21 20 19 19 19 20 21 22 23 23 24 24 23 23 24 25 27 28 30 31 33 34 35 35 35 36 37 39 40 40 41 42 42 42 41 40 40 40 39 38 38 38
23 22 21 21 21 22 23 24 24 25 26 26 25 26 27 28 29 30 31 33 35 36 35 35 35 36 38 39 39 40 41 42 42 41 41 40 40 40 39 39 38 39
24 24 23 23 23 24 25 26 26 27 28 28 28 29 30 30 31 32 34 35 36 36 35 35 35 37 38 38 38 39 41 42 42 41 41 40 40 41 40 39 39 41
27 27 26 26 26 27 28 28 29 29 29 29 30 31 32 32 32 34 35 36 36 35 35 35 36 37 37 37 38 39 41 42 42 41 41 41 42 41 41 40 41 42
28 28 28 28 28 29 29 29 30 30 31 31 32 33 33 33 34 35 36 36 35 35 34 35 37 37 36 36 37 39 40 41 42 42 42 43 43 43 42 41 42 42
28 29 29 29 30 30 30 30 30 31 32 33 33 34 34 34 35 36 35 35 35 34 35 36 37 36 35 36 38 39 40 41 42 42 43 44 44 43 43 42 41 41
29 30 30 30 31 32 31 31 32 32 33 34 34 34 34 34 35 35 35 35 35 35 36 37 37 36 35 36 38 39 40 41 42 43 44 45 45 44 43 41 40 39
29 30 30 31 32 32 32 33 34 34 33 33 33 34 34 34 35 35 36 36 36 36 37 37 36 35 35 36 38 39 40 41 42 43 45 45 44 44 42 40 38 38
31 31 31 32 33 34 34 35 35 34 34 33 33 34 35 36 36 37 37 37 37 37 37 36 36 35 35 37 38 39 41 41 42 44 45 44 43 43 40 38 36 37
31 32 33 34 35 35 35 35 35 35 35 35 35 36 37 38 38 39 39 39 38 37 36 36 35 35 36 37 38 39 41 41 43 44 43 42 42 41 38 36 36 36
31 32 33 35 36 37 37 37 36 36 36 37 38 38 39 40 41 41 40 39 37 36 36 36 35 36 36 37 38 39 40 41 43 43 41 41 41 38 35 34 35 35
32 32 34 36 37 37 38 38 38 38 38 39 40 41 42 42 42 41 39 38 37 36 36 36 35 36 36 36 38 39 40 41 42 40 40 40 39 35 33 34 34 34
33 33 35 37 37 38 39 39 39 39 40 40 42 43 43 42 41 39 38 37 36 36 36 35 35 35 36 36 37 38 39 40 40 39 39 38 35 33 32 33 33 33
34 34 36 37 38 40 41 40 40 40 41 42 43 43 42 41 39 38 38 37 37 36 36 35 35 35 35 36 37 38 39 39 38 38 38 35 33 31 32 32 32 32
35 36 38 38 40 42 42 41 41 42 42 43 42 41 40 39 39 39 38 38 38 37 36 35 34 34 34 36 37 38 38 38 37 37 35 32 31 30 31 31 31 30
36 37 38 40 41 43 43 42 42 43 42 42 41 40 40 39 39 39 39 39 39 37 35 33 33 33 34 36 37 38 37 37 37 35 32 30 29 29 30 30 29 28
37 39 40 42 43 44 43 42 42 42 42 41 40 40 39 39 39 38 38 39 37 35 33 32 32 33 35 36 37 36 36 36 35 32 30 28 28 28 29 28 27 27
Wind_Direction
235 237 239 241 242 242 243 244 245 247 250 252 254 256 259 261 266 273 280 287 294 298 299 300 302 305 310 314 316 317 317 317 317 317 316 317 317 316 315 313 311 308
238 240 240 241 242 243 244 246 248 250 252 253 254 256 259 264 270 277 285 291 295 297 298 301 305 311 315 318 319 320 319 318 317 317 317 317 317 317 316 314 311 309
239 240 239 240 242 245 249 252 255 255 256 254 254 257 262 268 275 283 290 293 295 297 301 306 311 314 317 319 320 320 319 318 317 317 317 318 318 318 316 314 311 309
240 241 240 242 246 251 255 258 259 258 256 256 258 263 269 275 283 289 292 293 297 301 306 310 313 315 317 319 320 320 319 318 318 318 319 319 319 318 316 314 312 310
244 244 244 247 249 253 257 259 260 261 261 264 268 272 277 283 288 290 292 296 301 306 309 311 313 315 317 319 319 319 318 318 319 320 320 320 319 317 316 315 313 312
247 246 246 247 249 253 258 262 266 269 271 274 275 277 281 285 288 291 295 301 306 309 311 312 314 315 316 318 318 318 318 319 320 320 320 319 318 317 317 316 314 313
247 246 246 247 251 256 262 267 271 274 275 276 276 277 281 285 289 294 299 304 308 310 311 312 313 314 315 316 317 317 318 319 320 320 319 318 318 317 317 316 315 314
246 247 248 250 254 261 265 269 271 273 274 274 273 276 281 287 292 298 302 305 307 309 311 311 312 312 313 315 316 316 317 319 319 319 319 319 318 317 316 315 314 314
248 251 252 253 257 261 265 267 269 272 273 272 274 278 284 289 294 298 301 304 306 307 309 310 310 310 312 313 314 315 316 318 318 319 319 320 318 317 316 315 314 315
252 254 254 255 258 261 263 266 269 273 274 275 277 280 284 289 292 295 299 302 304 306 307 307 307 308 310 311 312 313 315 317 318 320 321 320 319 318 316 315 315 316
254 254 254 256 258 260 262 266 269 273 276 277 277 279 283 287 290 294 298 301 303 304 304 304 304 306 308 309 310 312 314 316 318 320 321 320 319 319 318 317 317 317
252 252 253 255 257 259 263 267 271 275 277 277 278 280 283 287 291 295 298 300 301 302 302 302 303 305 307 307 309 311 314 316 318 320 320 319 319 320 319 319 319 319
253 253 255 256 258 261 265 270 275 278 279 279 280 281 284 287 292 295 298 299 300 300 300 300 302 304 305 306 308 311 313 315 317 319 320 319 319 320 320 319 319 320
255 255 257 260 262 264 267 272 276 278 279 278 279 281 284 288 292 295 297 298 298 298 298 299 301 303 304 305 307 309 312 314 316 318 319 319 318 319 319 319 319 320
259 259 260 263 264 265 267 272 275 276 277 277 278 280 285 290 293 296 297 297 297 297 297 298 301 302 302 304 306 308 311 313 314 316 318 318 317 317 318 318 319 320
261 262 264 266 267 268 270 273 274 275 276 277 279 283 288 292 294 296 296 296 296 296 297 298 300 301 301 302 304 307 309 311 313 315 316 316 316 316 317 318 319 320
264 264 265 267 269 271 273 275 277 278 279 281 284 288 292 294 295 295 296 296 296 296 297 298 299 299 299 301 303 305 308 310 311 313 314 314 314 315 317 318 319 320
270 271 270 270 272 274 275 278 280 282 283 287 290 292 294 294 295 295 296 296 296 296 296 297 297 297 298 300 302 304 307 309 311 311 311 312 313 314 316 318 319 319
271 272 272 274 276 277 278 280 282 285 288 291 293 293 294 294 294 295 295 295 295 295 295 295 295 296 297 299 301 304 307 309 310 310 310 311 312 314 316 318 318 318
269 271 273 275 276 277 279 283 286 288 291 292 293 292 292 292 293 294 294 294 294 294 294 294 294 295 296 298 301 304 306 308 309 309 309 311 312 313 315 316 317 319
268 270 273 274 275 277 280 284 287 289 290 291 291 291 291 291 292 293 293 293 293 292 292 293 294 294 296 298 301 303 305 307 309 308 309 310 311 313 314 315 317 320
269 271 273 274 275 277 280 283 286 287 288 288 288 290 291 292 292 292 292 292 292 292 291 292 292 293 295 297 300 303 305 308 309 308 309 310 311 312 313 315 318 321
269 271 272 273 275 277 279 282 284 285 286 287 288 290 291 291 291 291 292 292 292 291 290 290 291 292 295 298 300 303 306 307 308 308 309 309 310 311 314 316 319 321
268 270 272 274 275 276 278 281 283 284 285 287 288 289 290 290 290 291 292 293 291 290 288 289 290 292 295 298 300 302 304 306 307 308 308 308 309 311 314 317 320 321
269 271 273 274 275 276 279 281 283 284 285 286 287 288 288 289 290 292 293 292 290 287 286 287 290 292 295 297 299 301 303 305 306 306 306 307 308 311 315 318 320 322
270 271 272 273 275 277 280 281 282 283 284 285 286 287 288 289 291 292 292 291 288 286 287 290 291 293 295 297 299 301 303 304 305 304 304 305 307 312 316 318 321 324
Height
5804 5804 5805 5805 5806 5806 5807 5807 5808 5808 5808 5808 5809 5809 5809 5809 5809 5808 5808 5807 5807 5806 5805 5804 5803 5801 5800 5798 5796 5794 5793 5791 5788 5786 5784 5782 5779 5776 5774 5771 5769 5766
5802 5802 5803 5803 5804 5804 5805 5806 5806 5806 5806 5806 5807 5806 5806 5806 5806 5806 5805 5805 5804 5803 5802 5801 5799 5798 5796 5794 5793 5791 5789 5787 5785 5783 5780 5778 5775 5773 5770 5767 5765 5763
5800 5800 5801 5801 5802 5803 5803 5804 5804 5804 5804 5804 5804 5804 5804 5804 5804 5803 5803 5802 5801 5800 5799 5798 5796 5795 5793 5791 5789 5788 5786 5784 5781 5779 5776 5774 5771 5769 5766 5763 5761 5759
5798 5799 5799 5800 5800 5801 5801 5802 5802 5802 5802 5802 5802 5802 5802 5801 5801 5801 5800 5799 5798 5797 5796 5794 5793 5791 5790 5788 5786 5785 5782 5780 5778 5775 5772 5770 5767 5765 5762 5760 5757 5755
5796 5797 5797 5798 5799 5799 5800 5800 5799 5799 5799 5799 5799 5799 5799 5799 5798 5798 5797 5797 5795 5794 5793 5791 5790 5788 5786 5785 5783 5781 5779 5777 5774 5771 5769 5766 5764 5761 5758 5756 5753 5750
5795 5795 5796 5796 5797 5797 5798 5797 5797 5797 5797 5797 5797 5797 5797 5796 5796 5795 5795 5793 5792 5791 5789 5788 5786 5785 5783 5782 5780 5778 5775 5773 5770 5768 5765 5763 5760 5757 5755 5752 5749 5746
5793 5793 5794 5795 5795 5795 5795 5795 5795 5795 5795 5795 5795 5795 5794 5794 5793 5792 5791 5790 5789 5788 5786 5785 5783 5782 5780 5778 5776 5774 5772 5769 5767 5765 5762 5759 5757 5754 5751 5748 5745 5742
5791 5791 5792 5793 5793 5793 5793 5793 5793 5793 5793 5793 5793 5792 5792 5791 5790 5789 5788 5787 5786 5785 5783 5782 5780 5779 5777 5775 5773 5771 5768 5766 5764 5761 5759 5756 5753 5750 5747 5744 5741 5738
5789 5789 5790 5790 5790 5790 5790 5790 5790 5790 5791 5790 5790 5790 5789 5788 5787 5786 5785 5784 5783 5781 5780 5778 5777 5775 5774 5772 5770 5767 5765 5763 5761 5758 5755 5752 5749 5746 5743 5740 5737 5734
5786 5787 5788 5788 5788 5788 5788 5788 5788 5788 5788 5788 5787 5787 5785 5785 5784 5783 5782 5781 5779 5778 5777 5775 5774 5772 5771 5769 5766 5764 5762 5759 5757 5755 5752 5749 5746 5743 5739 5736 5733 5730
5784 5785 5785 5785 5786 5786 5785 5785 5785 5785 5785 5785 5784 5783 5782 5781 5781 5780 5779 5777 5776 5775 5774 5772 5771 5769 5767 5765 5763 5761 5758 5756 5754 5751 5748 5745 5742 5739 5736 5732 5729 5726
5782 5782 5782 5783 5783 5783 5783 5783 5782 5782 5782 5782 5781 5780 5779 5778 5778 5777 5775 5774 5773 5771 5770 5769 5767 5766 5764 5762 5760 5757 5754 5752 5750 5747 5744 5741 5738 5735 5732 5728 5725 5722
5779 5779 5779 5780 5780 5780 5780 5780 5779 5779 5778 5778 5777 5776 5776 5775 5774 5773 5771 5770 5769 5768 5767 5765 5764 5762 5760 5758 5756 5754 5751 5748 5746 5744 5741 5737 5734 5731 5728 5725 5721 5718
5776 5776 5777 5777 5777 5777 5777 5777 5776 5775 5774 5774 5774 5773 5772 5771 5770 5769 5768 5766 5765 5764 5763 5762 5760 5758 5756 5754 5752 5750 5747 5745 5742 5739 5737 5734 5730 5727 5724 5720 5717 5713
5773 5773 5774 5774 5774 5774 5774 5773 5772 5771 5771 5771 5770 5769 5768 5767 5766 5765 5764 5763 5762 5761 5759 5758 5756 5754 5752 5750 5748 5746 5743 5741 5738 5736 5733 5730 5727 5723 5720 5716 5713 5709
5770 5770 5770 5770 5770 5770 5770 5769 5768 5768 5767 5767 5766 5765 5764 5763 5762 5761 5760 5759 5758 5757 5756 5754 5752 5750 5748 5746 5744 5742 5740 5737 5735 5732 5729 5726 5723 5719 5716 5712 5709 5706
5766 5767 5767 5767 5766 5765 5765 5764 5763 5763 5763 5762 5762 5761 5760 5759 5758 5757 5756 5755 5754 5753 5752 5750 5748 5746 5744 5743 5740 5738 5736 5734 5731 5729 5725 5722 5719 5716 5712 5709 5705 5702
5761 5762 5762 5762 5761 5761 5760 5759 5759 5759 5758 5758 5757 5756 5755 5755 5754 5753 5752 5751 5750 5749 5748 5746 5744 5742 5741 5739 5737 5735 5732 5730 5728 5725 5722 5719 5716 5712 5709 5705 5702 5699
5757 5757 5757 5757 5757 5757 5756 5755 5755 5754 5754 5753 5753 5752 5751 5751 5750 5749 5748 5747 5746 5745 5743 5742 5740 5739 5737 5735 5733 5731 5729 5727 5724 5721 5718 5715 5712 5709 5705 5702 5699 5696
5754 5754 5753 5753 5753 5753 5751 5750 5750 5750 5749 5749 5749 5748 5748 5747 5746 5745 5744 5743 5742 5741 5739 5738 5736 5735 5733 5731 5730 5728 5725 5723 5720 5717 5714 5712 5708 5705 5702 5699 5696 5693
5750 5750 5750 5749 5748 5748 5747 5746 5746 5746 5746 5746 5745 5744 5744 5743 5742 5741 5740 5739 5738 5736 5735 5734 5732 5731 5729 5728 5726 5724 5722 5719 5717 5714 5711 5708 5705 5702 5699 5696 5693 5690
5746 5746 5746 5745 5744 5744 5743 5743 5743 5742 5742 5742 5741 5740 5739 5739 5738 5737 5736 5735 5733 5732 5731 5730 5728 5727 5725 5724 5722 5720 5718 5715 5713 5710 5707 5704 5701 5698 5696 5693 5690 5688
5742 5742 5742 5741 5741 5740 5739 5740 5739 5739 5739 5738 5737 5736 5735 5735 5734 5733 5732 5731 5729 5728 5727 5726 5724 5723 5721 5720 5718 5716 5714 5711 5709 5706 5703 5701 5698 5695 5693 5690 5688 5685
5738 5738 5738 5738 5737 5736 5736 5736 5736 5735 5735 5734 5733 5732 5731 5731 5730 5729 5728 5727 5725 5724 5723 5722 5721 5719 5718 5716 5714 5712 5710 5707 5705 5702 5700 5697 5695 5692 5690 5687 5685 5682
5734 5734 5734 5733 5732 5731 5732 5732 5732 5731 5730 5730 5729 5728 5727 5726 5726 5725 5724 5722 5721 5720 5719 5718 5717 5715 5714 5712 5710 5708 5706 5703 5701 5698 5696 5694 5692 5689 5687 5685 5682 5680
5730 5730 5729 5729 5728 5728 5728 5728 5727 5726 5726 5726 5725 5724 5723 5722 5722 5721 5719 5718 5717 5716 5715 5714 5713 5711 5710 5708 5706 5704 5702 5699 5697 5695 5693 5691 5689 5686 5684 5682 5680 5677